DELTA 1 DEB

Satellite information

Favourite Embed

Satellite Type and Status

DEBRISIN ORBIT

Key statistics

Satellite DELTA 1 DEB at a glance.

Uptime

18348

Days in orbit

Revolutions

≈ 13.6

Per day

Orbit

SSO

Sun Synchronous Orbit

Inclination

99.8

Latest

Satellite identification and parameters

Extended collection of information and parameters for DELTA 1 DEB.

Object identification

Identified? True

Debris? True

Object name: DELTA 1 DEB

International designator: 1975-052FG

Object number (NORAD): 21472

Object ID (CCSDS): 21472

Country: UNITED STATES OF AMERICA (US)

Current information (Y/N): Y

RCS size: SMALL

Orbital parameters

Period: 105.967 minutes

Inclination: 99.7993 deg

SMA: 7417.794 km

Apoapsis: 1223.24 km

Periapsis: 856.078 km

RAAN: 109.303 deg

Eccentricy: 0.02474878

Argument of periapsis: 132.7468 deg

Mean anomaly: 229.4789 deg

Mean motion: 13.58909753 rev/day

Mean motion (dot): 0.00001058 rev/day2

B* drag term: 0.0012297108 1/REarth

Two-line elements (TLE)

Creation date: Sept. 4, 2025, 10:13 a.m.

Reference frame: TEME

Reference center: EARTH

Epoch: Sept. 4, 2025, 3:31 a.m. UTC

TLE line 0: 0 DELTA 1 DEB

TLE line 1: 1 21472U 75052FG 25247.14687647 .00001058 00000-0 12297-2 0 9995

TLE line 2: 2 21472 99.7993 109.3030 0247488 132.7468 229.4789 13.58909753692945

Live tracking on map

Real-time ground track for satellite DELTA 1 DEB.

In-orbit conjunctions

A list of the most updated potential collisions computed for object DELTA 1 DEB.

Target Orbit TCA Probability of collision Miss distance Type
DMSP 5D-2 F11 DEB SSO 2025-06-27 04:54:43 0.0002998345 117.0 (m) DEBRIS
DELTA 1 DEB SSO 2024-12-06 11:51:19 0.0001167419 186.0 (m) DEBRIS
CZ-6A DEB LEO 2024-10-16 22:36:23 0.001054044 118.0 (m) DEBRIS

Associated space launch

Experimental meteorological satellite

DELTA 1 DEB was lifted into orbit during the mission ‘Delta 2910 | Nimbus 6’, on board a Delta 2910 space rocket.

The launch took place on June 12, 1975, 8:12 a.m. from Space Launch Complex 2W.

For more information about the launch, click the button.

Launch to space Delta 2910 | Nimbus 6
Delta 2910 | Nimbus 6

Agency: N/A

Status: Launch Successful

Launch date: June 12, 1975, 8:12 a.m. UTC

Rocket: Delta 2910

Launch pad: Space Launch Complex 2W

Location: Vandenberg SFB, CA, USA

...

Latest news about this satellite

There are no fresh news available about this satellite. Check back as we update our databases every day.


Newsletter sign-up

Weekly statistics, charts and insights to help you stay on top of the space industry.